Weather in Ağcabədi

Azerbaijan     40°02′31″N   47°26′30″E
temp.,
°C
wind,
m/s
gust,
m/s
humid.,
%
clouds,
%
prec.,
mm/h
press.,
hPa
HPBL,
m
15 may, sat
sat1501:00+19ene22615 0.0 101517
04:00+17ne11700 0.0 101511
07:00+20s11610 0.0 101560
10:00+26ene22400 0.0 1015665
13:00+31ese34220 0.0 10141977
16:00+33se34170 0.0 10122345
19:00+29sse610223 0.0 1012291
22:00+21sse484028 0.0 1014155
16 may, sun
sun1601:00+18ne33510 0.0 101420
04:00+17se11580 0.0 101411
07:00+19s12520 0.0 101459
10:00+25e23320 0.0 1014676
13:00+30ese34200 0.0 10121573
16:00+32se34170 0.0 10102163
19:00+28se610261 0.0 1009291
22:00+21se49420 0.0 1011168
17 may, mon
mon1701:00+18nne22546 0.0 101114
04:00+17nw22565 0.0 101113
07:00+20wnw11494 0.0 101162
10:00+25nne223382 0.0 1011685
13:00+30ne21240 0.0 10091237
16:00+32e22211 0.0 10071437
19:00+30sse22311 0.0 100624
22:00+23se33533 0.0 100926
18 may, tue
tue1801:00+21sse346076 0.0 100752
04:00+19ene336723 0.0 100641
07:00+20nw2363100 0.0 1007135
10:00+26n3444100 0.0 1008849
13:00+30n4433100 0.0 10071301
16:00+32ene44303 0.0 10051842
19:00+23wnw2762100 1.8 1009329
22:00+21wnw2370100 2.9 101050
19 may, wed
wed1901:00+20wnw23701 0.0 101145
04:00+19ssw22710 0.0 101113
07:00+20nw59660 0.0 1013325
10:00+26nw33440 0.0 1014896
13:00+30nw34290 0.0 10131622
16:00+32n23220 0.0 10112147
19:00+31ene11320 0.0 101114
22:00+22se59630 0.0 1014194